Zurück zum Katalog

SCOUT B R/B

AktivUNKNOWN
NORAD 1502·ROCKET BODY·🇺🇸 United States

Gestartet Aug 10, 1965 von Wallops Flight Facility

Loading…

Nächste Überflüge (nächste 24 Stunden)

TLE

AktuellSource: Space-Track

Epoche: Sep 14, 2026, 14:25 UTC

1 01502U 65063B   26257.60075668  .00000009  00000-0  27492-3 0  9994
2 01502  69.2287 118.7501 0783030 101.0968 296.2806 11.78606569628933

Verfolge SCOUT B R/B in Echtzeit mit AllMySat

Download on the App Store